This is the latest recevied weather packets stored in our database for station/object G3VHU. If no packets are shown the sender has not sent any weather packets the latest 10 day(s).
| Time | Temp. | Humidity | Pressure | Rain* | Wind** | Luminosity | Snow |
|---|---|---|---|---|---|---|---|
| 1777739979 | 12.78° C | 80% | 1014.4 hPa | 0 mm | - | - | - |
| 1777739678 | 12.78° C | 81% | 1014.5 hPa | 0 mm | - | - | - |
| 1777739376 | 12.78° C | 82% | 1014.3 hPa | 0 mm | - | - | - |
| 1777739077 | 12.78° C | 81% | 1014.3 hPa | 0 mm | - | - | - |
| 1777738776 | 12.22° C | 82% | 1014.2 hPa | 0 mm | - | - | - |
| 1777738476 | 12.22° C | 82% | 1014.4 hPa | 0 mm | - | - | - |
| 1777738176 | 12.22° C | 81% | 1014.3 hPa | 0 mm | - | - | - |
| 1777737876 | 12.22° C | 81% | 1014.2 hPa | 0 mm | - | - | - |
| 1777737576 | 12.22° C | 80% | 1014.3 hPa | 0 mm | - | - | - |
| 1777737275 | 12.22° C | 81% | 1014.3 hPa | 0 mm | - | - | - |
| 1777736975 | 12.22° C | 81% | 1014.3 hPa | 0 mm | - | - | - |
| 1777736675 | 12.22° C | 81% | 1014.3 hPa | 0 mm | - | - | - |
| 1777736374 | 12.78° C | 81% | 1014.1 hPa | 0 mm | - | - | - |
| 1777736075 | 12.22° C | 80% | 1014.2 hPa | 0 mm | - | - | - |
| 1777735774 | 12.78° C | 78% | 1014.5 hPa | 0 mm | - | - | - |
| 1777735474 | 13.33° C | 78% | 1014.4 hPa | 0 mm | - | - | - |
| 1777735174 | 13.33° C | 79% | 1014.6 hPa | 0 mm | - | - | - |
| 1777734875 | 13.33° C | 77% | 1014.7 hPa | 0 mm | - | - | - |
| 1777734575 | 13.33° C | 78% | 1014.8 hPa | 0 mm | - | - | - |
| 1777734275 | 13.33° C | 77% | 1014.8 hPa | 0 mm | - | - | - |
| 1777733974 | 13.33° C | 77% | 1015 hPa | 0 mm | - | - | - |
| 1777733675 | 13.89° C | 76% | 1015 hPa | 0 mm | - | - | - |
| 1777733375 | 13.89° C | 75% | 1015 hPa | 0 mm | - | - | - |
| 1777733074 | 14.44° C | 75% | 1015 hPa | 0 mm | - | - | - |
| 1777732775 | 14.44° C | 74% | 1014.9 hPa | 0 mm | - | - | - |
* Rain latest hour (hover to see other rain measurements)
** Current wind speed in m/s (hover to see current wind gust speed)